Location: C.E.K. Mees Observatory
(42.7003°N, 77.4088°W)
Time: 13:24:48
(UTC-05:00)

Envisat - Pass Details

Date: 19 November 2019
Orbit: 764 x 766 km, 98.1° (Epoch: 10 December)

Event Time Altitude Azimuth Distance (km) Brightness Sun altitude
Rises 17:16:13 0° 139° (SE) 3,220 6.0 -6.3°
Reaches altitude 10° 17:18:42 10° 129° (SE) 2,298 5.2 -6.8°
Maximum altitude 17:23:09 32° 67° (ENE) 1,295 3.7 -7.5°
Drops below altitude 10° 17:27:37 10° 6° (N) 2,310 5.2 -8.3°
Sets 17:30:08 0° 357° (N) 3,241 6.1 -8.7°
